User: anonymous   Login
Location: Hickory_CSC
(35.7330°N, 81.3330°W)
Time: 15:39:28
(UTC-05:00)
Language:

Cosmos 1356 Rocket - Orbit

View from above orbital plane
View from above orbital plane
View from above satellite
View from above satellite

Ground track
Ground track

The orbit data is extracted from the following two-line orbital elements,

1 13154U 82039B   16037.17033727  .00000761  00000-0  61608-4 0  9992
2 13154  81.1821  71.4259 0041890 108.8262 251.7508 14.97876821829329
Epoch (UTC): 06 February 2016 04:05:17
Eccentricity: 0.0041890
inclination: 81.1821°
perigee height: 544 km
apogee height: 602 km
right ascension of ascending node: 71.4259°
argument of perigee: 108.8262°
revolutions per day: 14.97876821
mean anomaly at epoch: 251.7508°
orbit number at epoch: 82932

The dashed part of the orbit path shows where the satellite is in the earth's shadow,  

DLR